This is the latest recevied weather packets stored in our database for station/object W2JGA. If no packets are shown the sender has not sent any weather packets the latest 10 day(s).
| Time | Temp. | Humidity | Pressure | Rain* | Wind** | Luminosity | Snow |
|---|---|---|---|---|---|---|---|
| 1777693976 | 25° C | 29% | 1014.3 hPa | 0 mm | - | 0 W/m² | - |
| 1777693673 | 25° C | 29% | 1014.3 hPa | 0 mm | - | 0 W/m² | - |
| 1777693372 | 25° C | 29% | 1014.3 hPa | 0 mm | - | 0 W/m² | - |
| 1777693070 | 25.56° C | 29% | 1013.9 hPa | 0 mm | - | 0 W/m² | - |
| 1777692767 | 25.56° C | 29% | 1014.3 hPa | 0 mm | - | 0 W/m² | - |
| 1777692463 | 25.56° C | 29% | 1013.9 hPa | 0 mm | - | 0 W/m² | - |
| 1777692159 | 25° C | 29% | 1013.9 hPa | 0 mm | - | 0 W/m² | - |
| 1777691858 | 24.44° C | 30% | 1013.9 hPa | 0 mm | - | 0 W/m² | - |
| 1777691555 | 25° C | 30% | 1013.6 hPa | 0 mm | - | 0 W/m² | - |
| 1777691254 | 25° C | 29% | 1013.6 hPa | 0 mm | - | 0 W/m² | - |
| 1777690951 | 25° C | 29% | 1013.2 hPa | 0 mm | - | 0 W/m² | - |
| 1777690648 | 25° C | 29% | 1013.6 hPa | 0 mm | - | 0 W/m² | - |
| 1777690346 | 25.56° C | 28% | 1013.2 hPa | 0 mm | - | 0 W/m² | - |
| 1777690044 | 26.11° C | 28% | 1013.2 hPa | 0 mm | - | 0 W/m² | - |
| 1777689742 | 26.11° C | 28% | 1013.2 hPa | 0 mm | - | 0 W/m² | - |
| 1777689440 | 26.11° C | 27% | 1013.2 hPa | 0 mm | - | 0 W/m² | - |
| 1777689136 | 26.67° C | 27% | 1013.2 hPa | 0 mm | - | 0 W/m² | - |
| 1777688834 | 26.67° C | 27% | 1013.2 hPa | 0 mm | - | 0 W/m² | - |
| 1777688530 | 26.67° C | 26% | 1013.2 hPa | 0 mm | - | 0 W/m² | - |
| 1777688228 | 27.22° C | 25% | 1013.2 hPa | 0 mm | - | 0 W/m² | - |
| 1777687925 | 27.22° C | 25% | 1012.9 hPa | 0 mm | - | 0 W/m² | - |
| 1777687622 | 27.22° C | 24% | 1012.9 hPa | 0 mm | - | 2 W/m² | - |
| 1777687319 | 27.22° C | 24% | 1012.9 hPa | 0 mm | - | 4 W/m² | - |
| 1777687017 | 27.78° C | 23% | 1012.4 hPa | 0 mm | - | 8 W/m² | - |
| 1777686713 | 27.78° C | 23% | 1012.4 hPa | 0 mm | - | 15 W/m² | - |
* Rain latest hour (hover to see other rain measurements)
** Current wind speed in m/s (hover to see current wind gust speed)